SCP
0 0 0 0 0 0 0 0 0 0 0 0 0 0 0 0 0 0 0 0 0 0 0 0 0 0 0 0 0 0 0 0 0 0 0 0 0 0
0 0 0 0 0 0 0 0 0 0 0 0 0 0 0 0 0 0 0 0 0 0 0 0 0 0 0 0 0 0 0 0 0 0 0 0 0 0
0 0 0 0 0 0 0 0 0 0 0 0 0 0 0 0 0 0 0 0 0 0 0 0 0 0 0 0 0 0 0 1 1 0 0 0 0 0
0 0 0 0 0 0 0 0 0 0 0 0 0 0 0 0 0 0 0 0 0 0 0 0 0 0 0 0 0 0 0 0 0 0 0 0 0 0
0 0 0 0 0 0 0 0 0 0 0 0 0 0 0 0 0 0 0 0 0 0 0 0 0 0 0 0 0 0 0 0 0 0 0 0 0 0
0 0 0 0 0 0 0 0 0 0 0 0 0 0 0 0 0 0 0 0 0 0 0 0 0 0 0 0 0 0 0 0 0 0 0 0 0 0
0 0 0 0 0 0 0 0 0 0 0 0 0 0 0 0 0 0 0 0 0 0 0 0 0 0 0 0 0 0 0 0 0 0 0 0 0 0
0 0 0 0 0 0 0 0 0 0 0 0 0 0 0 0 0 0 0 0 0 0 0 0 0 0 0 0 0 0 0 0 0 0 0 0 0 0
0 0 0 0 0 0 0 0 0 0 0 0 0 0 0 0 0 0 0 0 0 0 0 0 0 0 0 0 0 0 0 0 0 0 0 0 0 0
0 0 0 0 0 0 0 0 0 0 0 0 0 0 0 0 0 0 0 0 0 0 0 0 0 0 0 0 0 0 0 0 0 0 0 0 0 0
0 0 0 0 0 0 0 0 0 0 0 0 0 0 0 0 0 0 0 0 0 0 0 0 0 0 0 0 0 0 0 0 0 0 0 0 0 0
0 0 0 0 0 0 0 0 0 0 0 0 0 0 0 0 0 0 0 0 0 0 0 0 0 0 0 0 0 0 0 0 0 0 0 0 0 0
0 0 0 0 0 0 0 0 0 0 0 0 0 0 0 0 0 0 0 0 0 0 0 0 0 0 0 0 0 0 0 0 0 0 0 0 0 0
0 0 0 0 0 0 0 0 0 0 0 0 0 0 0 0 0 0 0 0 0 0 0 0 0 0 0 0 0 0 0 0 0 0 0 0 0 0
0 0 0 0 0 0 0 0 0 0 0 0 0 0 0 0 0 0 0 0 0 0 0 0 0 0 0 0 0 0 0 0 0 0 0 0 0 0
0 0 0 0 0 0 0 0 0 0 0 0 0 0 0 0 0 0 0 0 0 0 0 0 0 0 0 0 0 0 0 0 0 0 0 0 0 0
0 0 0 0 0 0 0 0 0 0 0 0 0 0 0 0 0 0 0 0 0 0 0 0 0 0 0 0 0 0 0 0 0 0 0 0 0 0
0 0 0 0 0 0 0 0 0 0 0 0 0 0 0 0 0 0 0 0 0 0 0 0 0 0 0 0 0 0 0 0 0 0 0 0 0 0
0 0 0 0 0 0 0 0 0 0 0 0 0 0 0 0 0 0 0 0 0 0 0 0 0 0 0 0 0 0 0 0 0 0 0 0 0 0
0 0 0 0 0 0 0 0 0 0 0 0 0 0 0 0 0 0 0 0 0 0 0 0 0 -0 0 0 0 0 0 0 0 0 0 0 0 0
0 0 0 0 0 0 0 0 0 0 0 0 0 0 0 0 0 0 0 0 0 0 0 0 0 0 0 0 0 0 0 0 0 0 0 0 0 0
0 0 0 0 0 0 0 0 0 0 0 0 0 0 0 0 0 0 0 0 0 0 0 0 0 0 0 0 -0 0 0 0 0 0 0 0 0 0
0 0 0 0 0 0 0 0 0 0 0 0 0 0 0 0 0 0 0 0 0 0 0 0 0 0 0 0 0 0 0 0 0 0 0 0 0 0
Wind_Speed_500mb
61 60 58 54 48 45 41 40 39 43 43 41 38 41 47 48 45 43 48 46 51 53 47 48 54 58 62 67 72 74 76 84 83 75 63 56 54 48
76 54 51 49 41 44 45 42 42 44 41 42 42 49 52 51 46 44 48 55 57 57 56 58 63 66 70 73 76 80 83 85 94 84 81 63 60 47
57 48 46 40 46 47 47 46 45 45 46 45 47 51 61 56 51 53 58 59 61 63 66 70 73 77 81 83 85 84 83 85 86 94 74 80 67 49
58 52 46 44 51 50 51 51 46 43 46 48 51 54 55 51 55 59 63 66 73 76 79 83 85 88 90 90 89 86 81 81 87 86 91 88 70 48
57 55 54 51 47 50 53 52 48 42 45 50 52 55 52 54 60 65 69 72 74 75 77 77 77 78 83 88 90 86 80 74 82 78 86 101 77 50
61 52 53 47 46 52 50 47 43 42 43 43 44 47 52 57 64 69 75 74 78 75 75 71 70 67 65 69 73 78 78 75 73 72 85 79 66 43
57 50 50 50 52 52 46 42 42 42 40 42 46 51 54 57 61 67 74 77 79 77 73 67 68 67 69 68 62 66 63 56 59 61 70 67 42 34
58 54 50 50 51 48 43 39 40 38 40 43 46 49 52 56 60 63 67 74 80 74 74 76 64 67 69 66 56 48 47 47 48 51 47 30 29 38
54 49 48 49 44 38 36 39 41 41 42 43 43 46 50 52 57 60 61 65 70 75 71 79 66 71 69 60 42 36 43 42 50 55 34 29 33 43
49 46 44 41 40 38 38 39 39 38 39 41 44 44 47 47 50 53 58 64 69 67 57 72 67 68 69 60 41 41 43 37 26 24 25 32 38 40
45 41 40 40 40 38 39 38 37 38 39 41 43 44 45 43 43 49 53 57 73 68 61 63 63 70 73 67 44 44 19 25 29 29 32 36 37 40
39 39 38 38 39 39 38 37 36 38 39 40 39 39 41 41 40 43 48 55 59 71 46 54 68 64 60 61 39 35 20 26 29 34 34 36 38 43
37 36 35 35 36 37 38 37 39 40 40 43 43 43 43 43 43 42 41 47 54 64 59 60 68 60 58 59 51 34 30 33 31 29 34 39 43 47
33 32 32 33 36 39 40 39 40 39 40 42 44 44 45 45 44 44 42 43 46 55 56 45 60 57 54 48 46 32 24 24 26 32 39 45 46 41
28 29 31 34 36 35 36 35 37 39 41 43 44 45 46 47 47 47 47 47 48 43 42 39 40 43 47 52 50 40 27 26 30 36 40 37 28 25
28 28 30 30 32 32 32 37 40 40 41 43 45 47 48 48 48 48 51 51 54 47 35 32 29 33 46 42 38 24 22 24 22 24 25 22 21 27
29 27 27 29 30 34 39 39 39 39 41 43 45 48 50 51 50 48 47 48 48 51 46 35 27 23 32 31 33 29 31 33 25 27 31 31 26 28
27 27 29 31 35 38 38 37 39 41 43 45 47 50 52 53 53 50 47 46 50 48 45 42 37 29 27 45 43 36 35 33 29 32 33 35 31 27
30 35 35 35 34 34 36 40 41 43 46 49 50 49 50 52 52 51 49 48 48 46 44 42 42 33 30 45 40 35 38 35 32 35 34 33 29 22
31 31 34 36 37 39 42 43 45 47 47 49 49 48 46 50 52 49 47 48 48 46 45 40 37 35 24 22 31 35 29 31 33 35 31 28 25 22
28 30 32 34 37 39 41 44 46 47 48 49 46 46 43 46 49 46 46 44 46 47 47 44 37 37 37 38 40 40 33 34 34 33 29 26 22 19
27 28 32 35 38 41 43 46 48 49 48 46 45 44 43 43 44 45 42 44 41 44 50 47 38 34 33 35 43 40 33 29 33 32 30 27 21 11
27 30 33 36 40 43 46 49 51 51 47 45 44 44 42 41 39 41 43 42 42 45 43 43 39 34 34 33 33 36 30 32 33 29 28 28 23 21
Wind_Direction_500mb
279 285 263 259 267 265 251 254 252 258 262 273 268 270 280 286 287 290 297 294 294 296 290 286 285 284 283 281 280 280 279 275 267 264 259 263 275 277
272 266 263 260 259 253 254 249 257 259 260 270 273 282 285 287 286 286 289 294 296 295 290 284 281 280 281 281 280 279 280 278 272 256 273 256 257 264
253 258 254 255 257 252 251 247 250 256 265 272 277 280 284 287 289 290 295 298 299 298 295 292 288 286 284 282 279 281 280 279 275 271 260 264 259 250
246 246 251 258 254 257 249 246 251 258 265 273 283 287 285 290 294 298 300 301 301 300 298 295 292 289 285 281 279 276 277 279 271 279 270 260 255 247
241 250 254 255 250 251 253 246 248 255 267 279 282 283 289 294 299 300 303 304 304 303 302 300 299 296 291 286 280 276 275 280 276 274 268 259 246 246
242 240 249 243 244 243 242 246 251 263 274 278 280 286 295 301 304 309 308 307 307 310 308 308 308 304 305 298 289 278 273 277 275 274 272 257 254 245
236 234 233 242 244 242 243 250 261 270 270 276 285 294 301 306 309 311 309 311 311 313 316 317 314 315 313 308 295 277 275 274 270 272 270 260 241 251
232 229 230 242 238 234 240 258 267 268 276 283 291 298 304 307 308 308 311 314 312 315 314 315 318 319 323 318 307 278 274 268 273 277 257 245 247 251
226 228 232 230 232 244 260 265 268 276 283 289 294 299 303 305 306 309 306 306 309 312 316 311 319 317 325 319 315 299 280 285 287 260 216 240 250 257
224 227 229 234 242 255 262 267 276 282 286 291 295 298 299 302 304 306 307 307 306 310 314 303 316 316 322 315 308 315 294 290 241 220 229 254 254 253
218 225 232 241 251 258 266 271 275 279 285 288 291 295 300 305 304 301 303 300 305 310 309 305 309 311 316 317 312 316 269 211 213 230 251 258 253 258
224 233 242 249 258 265 269 274 277 282 285 288 292 297 300 301 300 298 300 297 300 305 312 303 301 305 311 313 311 325 213 207 223 247 252 250 255 267
231 238 247 257 264 270 276 280 283 286 291 294 299 302 302 301 299 297 294 293 288 286 299 301 300 296 291 296 306 294 224 227 245 244 247 256 264 272
236 246 255 264 271 278 282 284 287 295 298 301 304 303 303 303 301 299 297 293 285 286 299 302 289 282 279 281 289 282 230 219 226 241 256 268 275 271
252 260 263 267 272 276 279 289 296 298 300 300 302 305 305 305 305 304 301 298 296 288 293 281 304 276 271 271 269 264 218 215 236 258 270 271 267 268
258 261 263 266 275 281 284 293 292 293 297 301 303 303 304 305 306 307 306 305 303 300 281 294 299 286 262 264 249 230 226 225 259 268 256 270 276 270
263 268 272 274 276 283 285 284 289 295 297 298 302 303 304 305 306 307 306 306 305 306 299 286 281 304 257 240 234 229 240 245 265 259 257 267 275 273
264 273 275 275 276 276 280 287 292 292 298 300 301 301 302 304 305 307 307 304 302 303 300 296 291 288 274 241 237 238 244 250 256 246 251 261 269 270
274 275 268 266 269 277 286 288 291 293 295 297 296 300 301 302 304 305 305 305 302 300 300 300 298 295 284 262 252 247 251 251 250 238 247 256 272 275
271 268 269 272 276 279 282 285 287 292 296 296 296 298 300 300 302 304 304 303 302 299 296 296 298 293 284 261 275 268 255 251 237 232 243 246 267 271
287 288 285 282 282 285 289 292 295 297 295 292 293 295 297 297 299 301 301 301 300 299 295 297 297 293 280 268 262 259 256 255 230 227 234 245 249 262
290 286 284 286 289 292 295 298 299 296 293 291 292 294 298 297 298 301 303 301 299 298 299 301 302 295 284 263 255 260 253 249 220 221 230 237 236 234
288 287 287 288 291 296 299 300 299 298 295 294 293 295 296 296 297 300 304 304 304 302 300 300 303 299 291 269 247 254 261 208 205 220 224 219 231 234
Wind_Speed_850mb
61 60 58 54 48 45 41 40 39 43 43 41 38 41 47 48 45 43 48 46 51 53 47 48 54 58 62 67 72 74 76 84 83 75 63 56 54 48
76 54 51 49 41 44 45 42 42 44 41 42 42 49 52 51 46 44 48 55 57 57 56 58 63 66 70 73 76 80 83 85 94 84 81 63 60 47
57 48 46 40 46 47 47 46 45 45 46 45 47 51 61 56 51 53 58 59 61 63 66 70 73 77 81 83 85 84 83 85 86 94 74 80 67 49
58 52 46 44 51 50 51 51 46 43 46 48 51 54 55 51 55 59 63 66 73 76 79 83 85 88 90 90 89 86 81 81 87 86 91 88 70 48
57 55 54 51 47 50 53 52 48 42 45 50 52 55 52 54 60 65 69 72 74 75 77 77 77 78 83 88 90 86 80 74 82 78 86 101 77 50
61 52 53 47 46 52 50 47 43 42 43 43 44 47 52 57 64 69 75 74 78 75 75 71 70 67 65 69 73 78 78 75 73 72 85 79 66 43
57 50 50 50 52 52 46 42 42 42 40 42 46 51 54 57 61 67 74 77 79 77 73 67 68 67 69 68 62 66 63 56 59 61 70 67 42 34
58 54 50 50 51 48 43 39 40 38 40 43 46 49 52 56 60 63 67 74 80 74 74 76 64 67 69 66 56 48 47 47 48 51 47 30 29 38
54 49 48 49 44 38 36 39 41 41 42 43 43 46 50 52 57 60 61 65 70 75 71 79 66 71 69 60 42 36 43 42 50 55 34 29 33 43
49 46 44 41 40 38 38 39 39 38 39 41 44 44 47 47 50 53 58 64 69 67 57 72 67 68 69 60 41 41 43 37 26 24 25 32 38 40
45 41 40 40 40 38 39 38 37 38 39 41 43 44 45 43 43 49 53 57 73 68 61 63 63 70 73 67 44 44 19 25 29 29 32 36 37 40
39 39 38 38 39 39 38 37 36 38 39 40 39 39 41 41 40 43 48 55 59 71 46 54 68 64 60 61 39 35 20 26 29 34 34 36 38 43
37 36 35 35 36 37 38 37 39 40 40 43 43 43 43 43 43 42 41 47 54 64 59 60 68 60 58 59 51 34 30 33 31 29 34 39 43 47
33 32 32 33 36 39 40 39 40 39 40 42 44 44 45 45 44 44 42 43 46 55 56 45 60 57 54 48 46 32 24 24 26 32 39 45 46 41
28 29 31 34 36 35 36 35 37 39 41 43 44 45 46 47 47 47 47 47 48 43 42 39 40 43 47 52 50 40 27 26 30 36 40 37 28 25
28 28 30 30 32 32 32 37 40 40 41 43 45 47 48 48 48 48 51 51 54 47 35 32 29 33 46 42 38 24 22 24 22 24 25 22 21 27
29 27 27 29 30 34 39 39 39 39 41 43 45 48 50 51 50 48 47 48 48 51 46 35 27 23 32 31 33 29 31 33 25 27 31 31 26 28
27 27 29 31 35 38 38 37 39 41 43 45 47 50 52 53 53 50 47 46 50 48 45 42 37 29 27 45 43 36 35 33 29 32 33 35 31 27
30 35 35 35 34 34 36 40 41 43 46 49 50 49 50 52 52 51 49 48 48 46 44 42 42 33 30 45 40 35 38 35 32 35 34 33 29 22
31 31 34 36 37 39 42 43 45 47 47 49 49 48 46 50 52 49 47 48 48 46 45 40 37 35 24 22 31 35 29 31 33 35 31 28 25 22
28 30 32 34 37 39 41 44 46 47 48 49 46 46 43 46 49 46 46 44 46 47 47 44 37 37 37 38 40 40 33 34 34 33 29 26 22 19
27 28 32 35 38 41 43 46 48 49 48 46 45 44 43 43 44 45 42 44 41 44 50 47 38 34 33 35 43 40 33 29 33 32 30 27 21 11
27 30 33 36 40 43 46 49 51 51 47 45 44 44 42 41 39 41 43 42 42 45 43 43 39 34 34 33 33 36 30 32 33 29 28 28 23 21
Wind_Direction_850mb
279 285 263 259 267 265 251 254 252 258 262 273 268 270 280 286 287 290 297 294 294 296 290 286 285 284 283 281 280 280 279 275 267 264 259 263 275 277
272 266 263 260 259 253 254 249 257 259 260 270 273 282 285 287 286 286 289 294 296 295 290 284 281 280 281 281 280 279 280 278 272 256 273 256 257 264
253 258 254 255 257 252 251 247 250 256 265 272 277 280 284 287 289 290 295 298 299 298 295 292 288 286 284 282 279 281 280 279 275 271 260 264 259 250
246 246 251 258 254 257 249 246 251 258 265 273 283 287 285 290 294 298 300 301 301 300 298 295 292 289 285 281 279 276 277 279 271 279 270 260 255 247
241 250 254 255 250 251 253 246 248 255 267 279 282 283 289 294 299 300 303 304 304 303 302 300 299 296 291 286 280 276 275 280 276 274 268 259 246 246
242 240 249 243 244 243 242 246 251 263 274 278 280 286 295 301 304 309 308 307 307 310 308 308 308 304 305 298 289 278 273 277 275 274 272 257 254 245
236 234 233 242 244 242 243 250 261 270 270 276 285 294 301 306 309 311 309 311 311 313 316 317 314 315 313 308 295 277 275 274 270 272 270 260 241 251
232 229 230 242 238 234 240 258 267 268 276 283 291 298 304 307 308 308 311 314 312 315 314 315 318 319 323 318 307 278 274 268 273 277 257 245 247 251
226 228 232 230 232 244 260 265 268 276 283 289 294 299 303 305 306 309 306 306 309 312 316 311 319 317 325 319 315 299 280 285 287 260 216 240 250 257
224 227 229 234 242 255 262 267 276 282 286 291 295 298 299 302 304 306 307 307 306 310 314 303 316 316 322 315 308 315 294 290 241 220 229 254 254 253
218 225 232 241 251 258 266 271 275 279 285 288 291 295 300 305 304 301 303 300 305 310 309 305 309 311 316 317 312 316 269 211 213 230 251 258 253 258
224 233 242 249 258 265 269 274 277 282 285 288 292 297 300 301 300 298 300 297 300 305 312 303 301 305 311 313 311 325 213 207 223 247 252 250 255 267
231 238 247 257 264 270 276 280 283 286 291 294 299 302 302 301 299 297 294 293 288 286 299 301 300 296 291 296 306 294 224 227 245 244 247 256 264 272
236 246 255 264 271 278 282 284 287 295 298 301 304 303 303 303 301 299 297 293 285 286 299 302 289 282 279 281 289 282 230 219 226 241 256 268 275 271
252 260 263 267 272 276 279 289 296 298 300 300 302 305 305 305 305 304 301 298 296 288 293 281 304 276 271 271 269 264 218 215 236 258 270 271 267 268
258 261 263 266 275 281 284 293 292 293 297 301 303 303 304 305 306 307 306 305 303 300 281 294 299 286 262 264 249 230 226 225 259 268 256 270 276 270
263 268 272 274 276 283 285 284 289 295 297 298 302 303 304 305 306 307 306 306 305 306 299 286 281 304 257 240 234 229 240 245 265 259 257 267 275 273
264 273 275 275 276 276 280 287 292 292 298 300 301 301 302 304 305 307 307 304 302 303 300 296 291 288 274 241 237 238 244 250 256 246 251 261 269 270
274 275 268 266 269 277 286 288 291 293 295 297 296 300 301 302 304 305 305 305 302 300 300 300 298 295 284 262 252 247 251 251 250 238 247 256 272 275
271 268 269 272 276 279 282 285 287 292 296 296 296 298 300 300 302 304 304 303 302 299 296 296 298 293 284 261 275 268 255 251 237 232 243 246 267 271
287 288 285 282 282 285 289 292 295 297 295 292 293 295 297 297 299 301 301 301 300 299 295 297 297 293 280 268 262 259 256 255 230 227 234 245 249 262
290 286 284 286 289 292 295 298 299 296 293 291 292 294 298 297 298 301 303 301 299 298 299 301 302 295 284 263 255 260 253 249 220 221 230 237 236 234
288 287 287 288 291 296 299 300 299 298 295 294 293 295 296 296 297 300 304 304 304 302 300 300 303 299 291 269 247 254 261 208 205 220 224 219 231 234